This demonstration page uses our WeatherBlox Daily Observations layout. Learn more.

Hourly Observations for August 3, 2017

Temp ( °F °C ) Dew Point ( °F °C ) Humidity (%) Winds ( mph kmh ) Pressure ( in mb ) Visibility ( mi km ) Precip ( " mm )
12:15 am 00:15 Mostly Cloudy 73 23 70 21 89 89 NNE 5 7 30.09 1019 10 16.09344 0 0
12:35 am 00:35 Clear with Nearby Thunderstorms 72 22 70 21 94 94 ENE 6 9 30.09 1019 10 16.09344 0 0
12:55 am 00:55 Clear 72 22 70 21 94 94 NE 6 9 30.09 1019 10 16.09344 0 0
1:15 am 01:15 Partly Cloudy 73 23 70 21 89 89 N 7 11 30.12 1020 10 16.09344 0 0
1:35 am 01:35 Partly Cloudy 73 23 70 21 89 89 NNE 6 9 30.12 1020 10 16.09344 0 0
1:55 am 01:55 Clear 73 23 70 21 89 89 NE 6 9 30.09 1019 10 16.09344 0 0
2:15 am 02:15 Clear 73 23 70 21 89 89 NE 3 6 30.09 1019 10 16.09344 0 0
2:35 am 02:35 Clear 72 22 70 21 94 94 NNE 7 11 30.09 1019 10 16.09344 0 0
2:55 am 02:55 Clear 72 22 70 21 94 94 NNE 5 7 30.09 1019 10 16.09344 0 0
3:15 am 03:15 Clear 72 22 70 21 94 94 NE 3 6 30.09 1019 10 16.09344 0 0
3:35 am 03:35 Clear 72 22 70 21 94 94 Calm 30.09 1019 10 16.09344 0 0
3:55 am 03:55 Clear 72 22 70 21 94 94 NNE 5 7 30.09 1019 10 16.09344 0 0
4:15 am 04:15 Clear 70 21 70 21 100 100 Calm 30.09 1019 10 16.09344 0 0
4:35 am 04:35 Clear 70 21 70 21 100 100 Calm 30.09 1019 10 16.09344 0 0
4:55 am 04:55 Clear 70 21 70 21 100 100 Calm 30.09 1019 10 16.09344 0 0
5:15 am 05:15 Clear 70 21 70 21 100 100 N 5 7 30.09 1019 10 16.09344 0 0
5:35 am 05:35 Clear 70 21 70 21 100 100 NNW 3 6 30.09 1019 10 16.09344 0 0
5:55 am 05:55 Clear 68 20 68 20 100 100 NNW 3 6 30.09 1019 10 16.09344 0 0
6:15 am 06:15 Sunny 68 20 68 20 100 100 N 5 7 30.09 1019 10 16.09344 0 0
6:35 am 06:35 Sunny 70 21 70 21 100 100 N 3 6 30.09 1019 10 16.09344 0 0
6:55 am 06:55 Sunny 70 21 70 21 100 100 NNE 3 6 30.12 1020 10 16.09344 0 0
7:15 am 07:15 Sunny 70 21 68 20 94 94 NNE 3 6 30.12 1020 10 16.09344 0 0
7:35 am 07:35 Sunny 72 22 70 21 94 94 N 5 7 30.12 1020 10 16.09344 0 0
7:55 am 07:55 Sunny 72 22 70 21 94 94 NNE 5 7 30.12 1020 10 16.09344 0 0
8:15 am 08:15 Sunny 73 23 70 21 89 89 NNE 3 6 30.12 1020 10 16.09344 0 0
8:35 am 08:35 Sunny 73 23 70 21 89 89 NNE 7 11 30.15 1021 10 16.09344 0 0
8:55 am 08:55 Mostly Cloudy 75 24 70 21 83 83 NE 6 9 30.15 1021 10 16.09344 0 0
9:15 am 09:15 Cloudy 75 24 70 21 83 83 Calm 30.15 1021 10 16.09344 0 0
9:35 am 09:35 Mostly Cloudy 77 25 72 22 83 83 E 5 7 30.15 1021 10 16.09344 0 0
9:55 am 09:55 Mostly Cloudy 77 25 72 22 83 83 E 3 6 30.15 1021 10 16.09344 0 0
10:15 am 10:15 Partly Cloudy 77 25 72 22 83 83 NE 5 7 30.15 1021 10 16.09344 0 0
10:35 am 10:35 Sunny 79 26 72 22 79 79 NE 3 6 30.15 1021 10 16.09344 0 0
10:55 am 10:55 Sunny 79 26 72 22 79 79 Calm 30.15 1021 10 16.09344 0 0
11:15 am 11:15 Sunny 81 27 72 22 74 74 Calm 30.15 1021 10 16.09344 0 0
11:35 am 11:35 Sunny 81 27 70 21 70 70 N 3 6 30.15 1021 10 16.09344 0 0
11:55 am 11:55 Sunny 82 28 72 22 70 70 ENE 3 6 30.12 1020 10 16.09344 0 0
12:15 pm 12:15 Sunny 81 27 70 21 70 70 Calm 30.12 1020 10 16.09344 0 0
12:35 pm 12:35 Sunny 82 28 72 22 70 70 NE 3 6 30.12 1020 10 16.09344 0 0
12:55 pm 12:55 Sunny 84 29 72 22 66 66 WNW 3 6 30.12 1020 10 16.09344 0 0
1:15 pm 13:15 Sunny 84 29 72 22 66 66 Calm 30.12 1020 10 16.09344 0 0
1:35 pm 13:35 Sunny 86 30 72 22 62 62 ESE 3 6 30.12 1020 10 16.09344 0 0
1:55 pm 13:55 Sunny 88 31 72 22 59 59 WSW 5 7 30.09 1019 10 16.09344 0 0
2:15 pm 14:15 Sunny 88 31 72 22 59 59 Calm 30.09 1019 10 16.09344 0 0
2:35 pm 14:35 Partly Cloudy 88 31 70 21 55 55 SSE 3 6 30.09 1019 10 16.09344 0 0
2:55 pm 14:55 Partly Cloudy 88 31 70 21 55 55 Calm 30.09 1019 10 16.09344 0 0
3:15 pm 15:15 Sunny 90 32 72 22 55 55 Calm 30.03 1017 10 16.09344 0 0
3:35 pm 15:35 Sunny 90 32 70 21 52 52 SSW 5 7 30.03 1017 10 16.09344 0 0
3:55 pm 15:55 Sunny 90 32 70 21 52 52 W 3 6 30.03 1017 10 16.09344 0 0
4:15 pm 16:15 Sunny 90 32 70 21 52 52 W 5 7 30.03 1017 10 16.09344 0 0
4:35 pm 16:35 Mostly Cloudy 90 32 70 21 52 52 WSW 5 7 30.03 1017 10 16.09344 0 0
4:55 pm 16:55 Mostly Cloudy 88 31 72 22 59 59 ENE 5 7 30 1016 10 16.09344 0 0
5:15 pm 17:15 Cloudy 88 31 72 22 59 59 E 6 9 30 1016 10 16.09344 0 0
5:35 pm 17:35 Mostly Cloudy 86 30 72 22 62 62 E 6 9 30.03 1017 10 16.09344 0 0
5:55 pm 17:55 Partly Cloudy with Nearby Thunderstorms 86 30 70 21 59 59 SE 12 19 30.06 1018 10 16.09344 0 0
6:15 pm 18:15 Mostly Cloudy 82 28 68 20 62 62 SSE 7 11 30.06 1018 10 16.09344 0 0
6:35 pm 18:35 Partly Cloudy 86 30 68 20 55 55 SSE 7 11 30.03 1017 10 16.09344 0 0
6:55 pm 18:55 Sunny 86 30 68 20 55 55 Calm 30.06 1018 10 16.09344 0 0
7:15 pm 19:15 Partly Cloudy 84 29 68 20 58 58 Calm 30.06 1018 10 16.09344 0 0
7:35 pm 19:35 Mostly Cloudy 81 27 70 21 70 70 SE 8 13 30.06 1018 10 16.09344 0 0
7:55 pm 19:55 Cloudy with Nearby Thunderstorms 79 26 70 21 74 74 ESE 7 11 30.06 1018 10 16.09344 0 0
8:15 pm 20:15 Cloudy with Thunderstorms 79 26 72 22 79 79 WSW 5 7 30.09 1019 10 16.09344 0 0
8:35 pm 20:35 Cloudy with Thunderstorms 73 23 72 22 94 94 N 6 9 30.09 1019 10 16.09344 0.04 1.016
8:55 pm 20:55 Mostly Cloudy with Thunderstorms 73 23 72 22 94 94 N 6 9 30.09 1019 10 16.09344 0.06 1.524
9:15 pm 21:15 Partly Cloudy 72 22 72 22 100 100 Calm 30.06 1018 10 16.09344 0.01 0.254
9:35 pm 21:35 Clear 72 22 72 22 100 100 Calm 30.09 1019 10 16.09344 0.01 0.254
9:55 pm 21:55 Clear 72 22 72 22 100 100 NW 5 7 30.09 1019 10 16.09344 0.01 0.254
10:15 pm 22:15 Clear 70 21 70 21 100 100 Calm 30.09 1019 10 16.09344 0 0
10:35 pm 22:35 Clear 72 22 70 21 94 94 E 5 7 30.09 1019 10 16.09344 0 0
10:55 pm 22:55 Clear 72 22 70 21 94 94 E 5 7 30.06 1018 10 16.09344 0 0
11:15 pm 23:15 Clear 72 22 72 22 100 100 Calm 30.06 1018 10 16.09344 0 0
11:35 pm 23:35 Clear 72 22 72 22 100 100 Calm 30.06 1018 10 16.09344 0 0
11:55 pm 23:55 Clear 72 22 72 22 100 100 Calm 30.06 1018 10 16.09344 0 0

Powered by AerisWeather